TimeEST,TemperatureF,Dew PointF,Humidity,Sea Level PressureIn,VisibilityMPH,Wind Direction,Wind SpeedMPH,Gust SpeedMPH,PrecipitationIn,Events,Conditions,WindDirDegrees,DateUTC
12:55 AM,38.3,36.1,92,30.07,10.0,NE,5.8,-,N/A,,Clear,50,2012-11-04 04:55:00
1:08 AM,37.4,35.6,93,30.08,6.0,ENE,5.8,-,N/A,,Clear,60,2012-11-04 05:08:00
1:11 AM,37.4,35.6,93,30.08,5.0,ENE,4.6,-,N/A,,Partly Cloudy,60,2012-11-04 05:11:00
1:16 AM,37.4,35.6,93,30.08,6.0,ENE,3.5,-,N/A,,Scattered Clouds,60,2012-11-04 05:16:00
1:17 AM,37.4,35.6,93,30.08,6.0,ENE,4.6,-,N/A,,Scattered Clouds,60,2012-11-04 05:17:00
1:29 AM,41.0,37.4,87,30.09,6.0,ENE,5.8,-,N/A,,Mostly Cloudy,70,2012-11-04 05:29:00
1:33 AM,42.8,37.4,81,30.09,7.0,East,3.5,-,N/A,,Mostly Cloudy,100,2012-11-04 05:33:00
1:55 AM,43.9,37.4,78,30.08,10.0,Calm,Calm,-,N/A,,Overcast,0,2012-11-04 05:55:00
1:53 AM,41.0,37.4,87,30.06,9.0,ENE,3.5,-,N/A,,Partly Cloudy,60,2012-11-04 06:53:00
1:54 AM,41.0,37.4,87,30.06,9.0,ENE,3.5,-,N/A,,Partly Cloudy,60,2012-11-04 06:54:00
1:55 AM,41.2,36.9,85,30.06,9.0,ENE,3.5,-,N/A,,Partly Cloudy,60,2012-11-04 06:55:00
2:55 AM,40.1,36.3,86,30.04,10.0,NNE,4.6,-,N/A,,Partly Cloudy,30,2012-11-04 07:55:00
3:55 AM,40.8,37.6,88,30.04,10.0,NE,5.8,-,N/A,,Scattered Clouds,40,2012-11-04 08:55:00
4:55 AM,40.6,36.3,85,30.02,10.0,Calm,Calm,-,N/A,,Clear,0,2012-11-04 09:55:00
5:55 AM,40.6,37.2,88,30.02,10.0,NE,5.8,-,N/A,,Partly Cloudy,50,2012-11-04 10:55:00
6:55 AM,41.7,36.5,82,30.02,10.0,ENE,4.6,-,N/A,,Mostly Cloudy,70,2012-11-04 11:55:00
7:55 AM,45.5,37.2,73,30.02,10.0,ENE,8.1,-,N/A,,Overcast,70,2012-11-04 12:55:00
8:31 AM,46.4,37.4,71,30.03,10.0,NE,5.8,-,N/A,,Mostly Cloudy,50,2012-11-04 13:31:00
8:55 AM,48.6,38.5,68,30.03,10.0,NE,5.8,-,N/A,,Overcast,40,2012-11-04 13:55:00
9:55 AM,52.2,39.6,62,30.01,10.0,NE,9.2,-,N/A,,Overcast,50,2012-11-04 14:55:00
10:55 AM,54.9,41.0,60,30.00,10.0,ENE,6.9,-,N/A,,Overcast,60,2012-11-04 15:55:00
11:45 AM,57.2,42.8,59,30.00,10.0,ENE,6.9,-,N/A,,Scattered Clouds,70,2012-11-04 16:45:00
11:55 AM,58.1,43.3,58,29.99,10.0,ENE,8.1,-,N/A,,Partly Cloudy,70,2012-11-04 16:55:00
12:55 PM,61.0,43.9,53,29.97,10.0,Variable,4.6,-,N/A,,Partly Cloudy,0,2012-11-04 17:55:00
1:55 PM,60.6,44.2,55,29.97,10.0,NNE,6.9,-,N/A,,Overcast,20,2012-11-04 18:55:00
2:55 PM,60.3,44.1,55,29.97,10.0,NE,6.9,-,N/A,,Mostly Cloudy,40,2012-11-04 19:55:00
3:55 PM,59.0,43.5,56,29.98,10.0,NE,4.6,-,N/A,,Mostly Cloudy,40,2012-11-04 20:55:00
4:55 PM,57.0,43.7,61,29.98,10.0,ENE,6.9,-,N/A,,Overcast,70,2012-11-04 21:55:00
5:55 PM,54.7,43.7,66,29.97,10.0,NE,6.9,-,N/A,,Mostly Cloudy,50,2012-11-04 22:55:00
6:55 PM,53.1,42.8,68,29.99,10.0,NE,8.1,-,N/A,,Scattered Clouds,50,2012-11-04 23:55:00
7:55 PM,51.8,41.7,68,29.99,10.0,NE,8.1,-,N/A,,Mostly Cloudy,50,2012-11-05 00:55:00
8:36 PM,51.8,41.0,67,30.02,10.0,NE,5.8,-,N/A,Rain,Light Rain,40,2012-11-05 01:36:00
8:55 PM,49.8,44.1,81,30.02,10.0,East,5.8,-,0.00,Rain,Light Rain,80,2012-11-05 01:55:00
9:31 PM,50.0,44.6,82,30.02,10.0,ENE,5.8,-,N/A,,Overcast,60,2012-11-05 02:31:00
9:55 PM,48.7,45.3,88,30.02,10.0,ENE,4.6,-,0.01,,Overcast,60,2012-11-05 02:55:00
10:55 PM,48.4,45.1,89,30.01,10.0,NE,3.5,-,N/A,,Overcast,40,2012-11-05 03:55:00